SCP
0 0 0 0 0 0 0 0 0 0 0 0 0 0 0 0 0 0 0 0 0 0 0 0 0 0 0 0 0 0 0 0 0 0 0 0 0 0 0 0 0 0 0
0 0 0 0 0 0 0 0 0 0 0 0 0 0 0 0 0 0 0 0 0 0 0 0 0 0 0 0 0 0 0 0 0 0 0 0 0 0 0 0 0 0 0
0 0 0 0 0 0 0 0 0 0 0 0 0 0 0 0 0 0 0 0 0 0 0 0 0 0 0 0 0 0 0 0 0 0 0 0 0 0 0 0 0 0 0
0 0 0 0 0 0 0 0 0 0 0 0 0 0 0 0 0 0 0 0 0 0 0 0 0 0 0 0 0 0 0 0 0 0 0 0 0 0 0 0 0 0 0
0 0 0 0 0 0 0 0 0 0 0 0 0 0 0 0 0 0 0 0 0 0 0 0 0 0 0 0 0 0 0 0 0 0 0 0 0 0 0 0 0 0 0
0 0 0 0 0 0 0 0 0 0 0 0 0 0 0 0 0 0 0 0 0 0 0 0 0 0 0 0 0 0 0 0 0 0 0 0 0 0 0 0 0 0 0
0 0 0 0 0 0 0 0 0 0 0 0 0 0 0 0 0 0 0 0 0 0 0 0 0 0 0 0 0 0 0 0 0 0 0 0 0 0 0 0 0 0 0
0 0 0 0 0 0 0 0 0 0 0 0 0 0 0 0 0 0 0 0 0 0 0 0 0 0 0 0 0 0 0 0 0 0 0 0 0 0 0 0 0 0 0
0 0 0 0 0 0 0 0 0 0 0 0 0 0 0 0 0 0 0 0 0 0 0 0 0 0 0 0 0 0 0 0 0 0 0 0 0 0 0 0 0 0 0
0 0 0 0 0 0 0 0 0 0 0 0 0 0 0 0 0 0 0 0 0 0 0 0 0 0 0 0 0 0 0 0 0 0 0 0 0 0 0 0 0 0 0
0 0 0 0 0 0 0 0 0 0 0 0 0 0 0 0 0 0 0 0 0 0 0 0 0 0 0 0 0 0 0 0 0 0 0 0 0 0 0 0 0 0 0
0 0 0 0 0 0 0 0 0 0 0 0 0 0 0 0 0 0 0 0 0 0 0 0 0 0 0 0 0 0 0 0 0 0 0 0 0 0 0 0 0 0 0
0 0 0 0 0 0 0 0 0 0 0 0 0 0 0 0 0 0 0 0 0 0 0 0 0 0 0 0 0 0 0 0 0 0 0 0 0 0 0 0 0 0 0
0 0 0 0 0 0 0 0 0 0 0 0 0 0 0 0 0 0 0 0 0 0 0 0 0 0 0 0 0 0 0 0 0 0 0 0 0 0 0 0 0 0 0
0 0 0 0 0 0 0 0 0 0 0 0 0 0 0 0 0 0 0 0 0 0 0 0 0 0 0 0 0 0 0 0 0 0 0 0 0 0 0 0 0 0 0
0 0 0 0 0 0 0 0 0 0 0 0 0 0 0 0 0 0 0 0 0 0 0 0 0 0 0 0 0 0 0 0 0 0 0 0 0 0 0 0 0 0 0
0 0 0 0 0 0 0 0 0 0 0 0 0 0 0 0 0 0 0 0 0 0 0 0 0 0 0 0 0 0 0 0 0 0 0 0 0 0 0 0 0 0 0
0 0 0 0 0 0 0 0 0 0 0 0 0 0 0 0 0 0 0 0 0 0 0 0 0 0 0 0 0 0 0 0 0 0 0 0 0 0 0 0 0 0 0
0 0 0 0 0 0 0 0 0 0 0 0 0 0 0 0 0 0 0 0 0 0 0 0 0 0 0 0 0 0 0 0 0 0 0 0 0 0 0 0 0 0 0
0 0 0 0 0 0 0 0 0 0 0 0 0 0 0 0 0 0 0 0 0 0 0 0 0 0 0 0 0 0 0 0 0 0 0 0 0 0 0 0 0 0 0
0 0 0 0 0 0 0 0 0 0 0 0 0 0 0 0 0 0 0 0 0 0 0 0 0 0 0 0 0 0 0 0 0 0 0 0 0 0 0 0 0 0 0
0 0 0 0 0 0 0 0 0 0 0 0 0 0 0 0 0 0 0 0 0 0 0 0 0 0 0 0 0 0 0 0 0 0 0 0 0 0 0 0 0 0 0
0 0 0 0 0 0 0 0 0 0 0 0 0 0 0 0 0 0 0 0 0 0 0 0 0 0 0 0 0 0 0 0 0 0 0 0 0 0 0 0 0 0 0
0 0 0 0 0 0 0 0 0 0 0 0 0 0 0 0 0 0 0 0 0 0 0 0 0 0 0 0 0 0 0 0 0 0 0 0 0 0 0 0 0 0 0
0 0 0 0 0 0 0 0 0 0 0 0 0 0 0 0 0 0 0 0 0 0 0 0 0 0 0 0 0 0 0 0 0 0 0 0 0 0 0 0 0 0 0
0 0 0 0 0 0 0 0 0 0 0 0 0 0 0 0 0 0 0 0 0 0 0 0 0 0 0 0 0 0 0 0 0 0 0 0 0 0 0 0 0 0 0
Wind_Speed
8 7 6 5 5 5 5 5 6 6 5 5 5 6 6 6 7 8 9 9 9 9 8 7 7 7 7 8 8 5 6 7 6 4 4 3 4 6 4 4 5 7 7
9 8 7 6 6 5 5 5 5 5 6 6 5 5 6 7 6 6 8 9 9 9 9 8 7 7 7 9 9 7 5 6 8 5 3 4 4 6 3 4 5 6 5
12 10 9 7 6 6 5 5 5 7 8 8 7 8 6 5 6 6 6 7 8 8 9 9 8 7 7 7 8 7 8 5 6 7 5 4 3 4 4 4 5 7 6
12 11 9 9 7 6 5 5 6 7 7 7 7 8 7 6 5 5 5 7 8 8 8 8 8 7 6 7 7 7 6 6 5 4 4 3 1 2 5 5 5 7 7
12 12 10 9 8 7 6 6 6 6 6 7 8 10 9 8 7 6 7 7 6 7 8 7 7 7 6 6 7 7 7 5 4 4 3 3 3 3 2 5 6 6 5
12 11 9 9 8 7 6 6 7 6 7 8 8 9 11 11 10 7 7 5 4 5 7 7 6 6 5 6 6 6 6 5 5 4 3 3 3 3 3 4 7 7 5
13 12 12 10 9 8 7 7 8 7 7 8 8 9 9 10 10 8 7 6 4 4 5 6 5 5 5 5 5 5 5 5 5 4 3 3 2 2 3 4 5 6 5
12 13 12 10 10 9 9 8 8 8 8 8 8 8 8 6 6 7 7 6 5 5 5 5 5 5 5 5 4 4 4 4 4 4 3 2 2 2 3 3 4 7 5
13 13 12 11 10 10 9 9 10 9 8 8 8 8 7 7 7 7 7 6 5 5 6 5 5 5 4 4 4 3 3 3 3 3 3 2 2 2 2 3 3 4 7
14 13 13 11 10 9 8 9 9 9 8 8 7 7 7 7 7 7 7 7 6 5 6 5 5 4 4 3 3 2 3 3 3 2 3 3 2 3 3 3 3 3 5
17 15 13 11 11 9 8 9 9 8 8 8 7 8 7 7 7 7 7 7 6 6 6 5 4 4 3 2 2 2 2 2 2 2 2 3 3 2 3 3 3 3 4
14 13 13 12 11 11 10 9 9 9 9 8 8 8 8 7 7 7 7 7 7 6 6 5 4 4 3 2 1 1 0 1 2 2 2 3 3 3 3 3 3 3 4
14 14 14 14 14 13 12 11 10 10 9 9 9 8 8 8 8 8 7 7 7 6 6 5 5 4 3 2 2 1 2 2 3 3 3 4 4 4 3 4 4 4 6
16 16 16 15 14 14 13 12 11 11 11 10 10 10 10 9 8 8 8 7 7 7 6 5 5 4 4 3 3 3 3 3 3 3 4 4 4 4 4 5 5 5 6
16 18 18 16 15 15 14 13 13 12 12 12 11 11 9 9 8 8 8 7 7 7 6 6 5 5 4 4 4 3 3 4 4 4 5 5 7 9 8 7 5 5 5
19 19 17 16 17 17 16 15 14 14 13 13 12 10 10 10 9 9 8 8 7 6 6 6 6 6 5 9 10 7 4 5 5 6 5 5 6 9 13 14 14 13 9
19 18 19 18 17 17 16 16 13 12 12 12 11 10 11 11 10 10 9 9 9 7 7 7 7 7 9 13 12 12 6 5 6 6 6 6 5 5 7 11 15 14 17
16 15 14 14 12 12 12 11 10 11 13 12 11 11 11 11 10 10 10 9 8 8 8 9 9 8 10 14 14 13 7 6 7 7 7 7 6 7 9 9 9 10 11
11 10 11 11 11 13 13 12 11 11 12 13 12 12 12 11 11 12 11 9 8 9 9 7 8 9 10 14 14 13 5 6 8 8 7 7 7 12 15 10 9 11 12
8 8 9 9 11 11 12 13 12 12 13 14 13 11 11 12 13 13 11 8 8 9 8 8 8 9 8 13 15 15 5 6 7 6 7 9 11 13 14 8 7 10 12
8 9 9 9 9 10 12 12 11 13 12 9 9 9 10 11 11 9 7 7 7 6 7 7 7 7 8 12 17 17 7 7 6 5 5 6 13 14 15 13 7 12 13
7 8 8 7 7 9 11 11 11 9 7 8 8 9 9 8 7 8 7 7 7 7 7 6 6 6 7 11 15 19 18 14 8 7 6 7 13 15 15 11 12 17 12
7 6 8 8 6 7 9 10 8 7 8 8 8 7 7 6 7 8 8 6 6 6 7 7 8 7 7 9 17 18 19 19 11 7 12 14 16 14 9 11 14 9 3
7 6 8 8 6 6 6 6 6 7 8 8 7 7 7 6 6 5 6 7 8 8 7 8 8 6 5 5 6 6 7 11 11 8 8 13 14 11 8 6 7 4 4
5 6 7 7 7 6 5 4 6 8 8 7 7 6 6 6 6 6 6 7 7 8 8 6 5 5 5 7 12 7 6 6 7 6 3 3 3 3 3 4 4 4 4
5 5 6 6 5 6 5 4 5 7 8 6 6 5 5 5 5 4 4 11 11 13 15 13 9 7 10 12 15 16 17 18 18 10 5 5 5 5 5 4 4 4 4
Wind_Direction
133 134 136 142 133 130 129 130 128 130 124 113 100 91 80 72 65 58 52 52 55 57 61 64 58 54 52 43 33 35 43 23 359 7 3 34 71 60 61 56 47 35 22
146 150 151 154 146 136 130 129 125 111 92 89 90 93 100 86 77 64 55 51 52 56 65 62 60 56 56 47 36 33 40 38 26 21 17 6 2 16 24 53 51 33 15
163 162 161 155 142 135 131 123 114 106 106 109 109 111 102 93 76 63 59 49 55 60 64 63 64 58 57 54 42 34 45 44 27 34 46 50 353 323 335 18 39 22 6
159 161 161 152 141 133 124 117 112 112 122 130 132 129 118 112 103 99 85 65 56 60 62 64 64 62 57 55 49 41 40 51 36 18 26 53 14 1 323 324 2 3 348
157 159 158 147 137 135 130 122 116 116 117 112 111 111 111 112 112 106 95 81 65 61 63 64 66 64 59 57 53 46 43 45 50 38 14 5 2 36 321 306 326 330 325
154 151 143 136 135 135 133 129 124 118 114 112 112 121 126 128 126 121 112 98 85 72 68 69 67 67 63 57 54 53 50 43 43 40 36 28 7 356 340 309 315 314 311
158 156 153 154 152 152 148 141 134 127 122 118 118 124 127 128 130 131 125 120 108 94 82 79 74 70 68 64 59 59 52 43 40 38 28 14 1 349 336 311 308 308 299
165 163 165 163 159 157 154 148 142 137 131 126 124 124 124 123 125 126 125 121 119 115 107 96 88 79 69 64 61 63 55 43 34 30 24 0 345 353 345 326 321 315 303
170 167 167 165 161 160 160 153 148 144 139 134 128 125 123 122 124 121 116 116 121 123 116 108 101 93 82 69 69 67 55 36 31 21 5 351 336 342 333 320 311 301 306
173 171 170 167 161 160 156 150 150 148 143 139 139 136 131 130 130 126 127 129 131 128 126 119 114 106 94 77 71 71 50 33 15 3 356 346 333 329 322 315 308 295 285
179 176 171 164 157 158 158 154 154 149 147 147 143 139 139 138 135 135 139 139 135 135 135 133 127 121 112 94 82 74 50 15 339 333 343 324 320 322 320 312 302 297 298
177 173 167 163 164 167 167 165 162 159 159 153 148 148 146 146 146 148 147 143 142 143 144 143 143 145 139 131 133 153 229 281 293 304 310 302 310 308 299 300 304 299 290
175 173 171 175 176 175 174 173 170 166 162 157 157 158 159 160 161 158 153 151 150 150 152 158 165 166 165 171 184 199 245 259 267 274 279 283 292 289 289 296 292 288 293
181 181 182 183 181 179 178 177 176 169 167 165 168 172 173 172 167 161 159 159 159 161 168 174 174 175 179 191 203 213 237 253 260 260 260 264 268 275 286 291 282 286 289
186 189 189 186 182 180 181 180 179 175 173 174 179 182 175 169 164 163 163 163 166 170 171 172 179 185 192 203 201 214 235 247 258 258 255 257 266 276 281 281 275 281 282
194 194 191 186 185 185 184 182 182 178 175 180 185 179 172 170 170 168 164 165 170 171 173 184 189 200 209 217 219 221 231 247 256 263 261 260 262 274 285 291 293 291 290
197 195 193 190 188 185 182 184 181 171 175 182 182 178 174 174 175 169 168 177 181 180 189 196 198 210 220 224 226 231 234 242 251 259 263 267 266 269 278 286 291 293 291
195 193 188 184 178 173 174 170 166 168 177 183 184 180 176 178 173 171 182 188 184 190 198 204 205 211 223 228 230 234 236 241 248 249 251 260 266 269 279 279 280 283 287
182 179 175 169 164 168 167 161 168 171 178 188 188 184 180 178 178 186 194 192 188 196 202 202 202 211 225 228 231 233 224 241 251 251 249 252 257 270 281 286 286 291 293
149 150 148 144 156 161 156 162 171 175 189 193 191 184 181 184 190 196 195 188 191 199 198 208 205 211 219 228 234 233 219 236 247 249 251 252 259 267 278 282 285 294 300
133 136 138 145 153 150 151 164 172 191 195 182 175 177 185 192 195 191 184 179 184 187 199 211 212 213 217 231 236 235 222 224 237 241 242 249 265 273 281 291 289 292 305
126 129 130 132 135 144 152 166 188 192 165 161 171 181 186 186 181 178 178 174 176 188 203 213 228 228 225 226 237 239 237 231 225 234 241 250 265 274 284 294 296 303 316
135 129 133 131 136 151 159 176 187 158 153 163 175 176 171 171 168 173 175 171 178 194 206 211 229 234 222 228 233 237 240 241 237 234 245 255 264 276 288 293 296 307 305
141 134 136 142 155 165 171 174 152 149 155 167 170 164 166 169 166 171 175 182 191 201 209 214 226 230 219 208 214 226 242 249 253 259 258 263 269 273 277 280 287 279 269
142 145 154 163 171 166 171 165 152 150 160 165 164 165 170 172 177 190 199 198 204 201 206 214 215 218 229 225 223 215 217 220 234 234 221 212 225 238 247 253 254 259 267
147 152 162 169 168 159 160 155 154 156 159 164 169 170 170 173 176 185 222 239 230 234 240 238 233 233 242 251 247 246 244 242 241 234 217 214 217 227 234 241 253 257 262